User: anonymous   Login
Location: Unspecified
(0.0000°N, 0.0000°E)
Time: 02:01:29
(UTC+02:00)
Language:

Cosmos 1980 Rocket - Orbit

View from above orbital plane
View from above orbital plane
View from above satellite
View from above satellite

Ground track
Ground track

The orbit data is extracted from the following two-line orbital elements,

1 19650U 88102B   17177.05265125 -.00000145 +00000-0 -49668-4 0  9998
2 19650 070.9980 356.4555 0014199 178.0504 182.0677 14.15757142476979
Epoch (UTC): 26 June 2017 01:15:49
Eccentricity: 0.0014199
inclination: 70.9980°
perigee height: 829 km
apogee height: 850 km
right ascension of ascending node: 356.4555°
argument of perigee: 178.0504°
revolutions per day: 14.15757142
mean anomaly at epoch: 182.0677°
orbit number at epoch: 47697

The dashed part of the orbit path shows where the satellite is in the earth's shadow,  

DLR